Edgar Albert Guest

(20 August 1881 - 5 August 1959 / Birmingham / England)

Stats

» Click to list general statistics » OR, select a date :

General Statistics

Visitors of the poet

Number of visitors of the poet’s mainpage in PoemHunter.Com

Attention : Numbers in this table does not indicate the total hits of poems of the poet, but indicates the hits of the poet’s main page.

Date Hits
10/24/2014 Friday 561
54%
10/23/2014 Thursday 1025
100%
10/22/2014 Wednesday 556
54%
10/21/2014 Tuesday 668
65%
10/20/2014 Monday 578
56%
10/19/2014 Sunday 587
57%
10/18/2014 Saturday 382
37%
10/17/2014 Friday 499
48%
10/16/2014 Thursday 607
59%
10/15/2014 Wednesday 499
48%
10/14/2014 Tuesday 683
66%
10/13/2014 Monday 587
57%
10/12/2014 Sunday 593
57%
10/11/2014 Saturday 392
38%
10/10/2014 Friday 544
53%
10/09/2014 Thursday 564
55%
10/08/2014 Wednesday 664
64%
10/07/2014 Tuesday 704
68%
10/06/2014 Monday 658
64%
10/05/2014 Sunday 316
30%

Reader rating & num.of MyPoemList’s

Click the captions of columns to change the order.

# Poem Title Submit Date Reader Rating Num.of MyPoemList’s
Rating Num.R.
1 A Christmas Carol 07/11/2014 10.0 1 0
2 When Day Is Done 07/11/2014 10.0 1 0
3 Home 07/12/2014 10.0 1 0
4 The Obligation Of Friendship 07/14/2014 10.0 1 0
5 The Living Beauties 07/12/2014 10.0 1 0
6 Life's Canvas 07/11/2014 10.0 1 1
7 Money 08/20/2014 10.0 1 0
8 The Tragedy Of Age 08/14/2014 10.0 1 0
9 My Religion 08/14/2014 10.0 1 0
10 A Boy And His Dog 07/11/2014 9.0 1 0
11 A Boy At Christmas 08/14/2014 9.0 1 1
12 Men And Dreamers 08/26/2014 9.0 1 0
13 A Baby's Love 08/14/2014 9.0 1 1
14 A Boy's Tribute 07/12/2014 9.0 1 0
15 Midnight In The Pantry 07/12/2014 9.0 1 0
16 Mother 07/11/2014 9.0 1 0
17 A Boy And His Dad 07/11/2014 9.0 1 0
18 A Boost For Modern Methods 07/12/2014 8.0 1 0
19 A Battle Prayer 08/14/2014 8.0 1 0
20 Memory 07/12/2014 8.0 1 0
21 The Unknown Friends 08/14/2014 8.0 1 0
22 A Breach Of Friendship 08/14/2014 8.0 1 0
23 A Choice 08/14/2014 8.0 1 0
24 A Bear Story 07/14/2014 7.0 1 0
25 A Child Of Mine 07/11/2014 7.0 1 0
26 Yesterday 01/01/2004 10.0 2 60
27 A Family Row 08/14/2014 5.0 1 0
28 When Father Shook The Stove 03/29/2010 9.0 2 1
29 The Little Orphan 01/01/2004 9.8 6 45
30 Reflection 03/29/2010 6.3 12 1
31 The Alarm 03/29/2010 5.1 11 2
32 Drafted 03/29/2010 5.1 11 0
33 Grace At Evening 03/29/2010 5.1 11 2
34 Selfishness 03/29/2010 5.5 12 2
35 Compensation 03/29/2010 5.4 12 1
36 Follow A Famous Father 03/29/2010 5.8 13 3
37 Show Me! 03/29/2010 5.3 12 6
38 The Kick Under The Table 03/29/2010 5.1 12 4
39 The Bachelor's Soliloquy 01/01/2004 6.3 15 39
40 On Quitting 01/01/2004 6.5 16 70
41 Move We Adjourn 03/29/2010 5.2 13 1
42 Ideals 03/29/2010 5.5 14 2
43 Father 01/01/2004 5.7 15 59
44 A Christmas Greeting 03/29/2010 6.1 16 1
45 Thanksgiving 01/01/2004 6.4 17 44
46 Peace 03/29/2010 4.9 14 2
47 I See You've Travelled Some 03/29/2010 5.1 15 1
48 A Father's Prayer 03/29/2010 5.8 17 6
49 Hard Luck 01/01/2004 5.9 18 56
50 If You Would Please Me 03/29/2010 4.9 16 2
51 Life's Slacker 03/29/2010 4.9 16 3
52 A Toast to the Men 01/01/2004 4.6 16 49
53 He Who Serves 03/29/2010 5.3 19 4
54 See it Through 01/01/2004 7.9 48 152
55 The Little Home 07/11/2014 -- 0 0
56 You 07/11/2014 -- 0 0
57 Sermons We See 07/11/2014 -- 0 0
58 The Soldier On Crutches 07/11/2014 -- 0 0
59 If This Were All 07/11/2014 -- 0 0
60 The First Easter 07/11/2014 -- 0 0
61 A Creed 07/11/2014 -- 0 0
62 As We Prayed 07/11/2014 -- 0 0
63 Prayer For The Home 07/11/2014 -- 0 0
64 Good Books 07/11/2014 -- 0 0
65 A New Baby In The House 07/11/2014 -- 0 0
66 No Better Land Than This 07/11/2014 -- 0 0
67 No Children! 07/11/2014 -- 0 0
68 Home And The Office 07/11/2014 -- 0 0
69 When Sorrow Comes 07/11/2014 -- 0 0
70 The Future 07/11/2014 -- 0 0
71 Influence 07/11/2014 -- 0 0
72 A New Year's Plea 07/11/2014 -- 0 0
73 The Lamb Skin 03/29/2010 -- 0 0
74 The Proof Of Worth 03/29/2010 -- 0 2
75 The Temple - What Makes It Of Worth 03/29/2010 -- 0 0
76 The Wrist Watch Man 03/29/2010 -- 0 1
77 Things Work Out 03/29/2010 -- 0 8
78 At Breakfast Time 07/11/2014 -- 0 0
79 It Couldn't Be Done 01/08/2014 -- 0 3
80 Equipment 07/11/2014 -- 0 0
81 A Friend 07/11/2014 -- 0 0
82 Silent 07/11/2014 -- 0 0
83 He's Taken Out His Papers 07/11/2014 -- 0 0
84 On A Certain Religious Argument 07/11/2014 -- 0 0
85 No Room For Hate 07/11/2014 -- 0 0
86 The Scoutmaster 07/11/2014 -- 0 0
87 The Cookie Jar 07/11/2014 -- 0 0
88 What We Need 07/11/2014 -- 0 0
89 Checking The Day 07/11/2014 -- 0 0
90 The Path To Home 07/11/2014 -- 0 0
91 The Common Joys 07/11/2014 -- 0 0
92 What I Call Living 07/11/2014 -- 0 0
93 Forgotten Boyhood 07/11/2014 -- 0 0
94 Back Home 07/11/2014 -- 0 0
95 The Good Little Boy 07/11/2014 -- 0 0
96 The Cheat 07/11/2014 -- 0 0
97 The Dead Return 07/11/2014 -- 0 0
98 The Lay For The Troubled Golfer 07/11/2014 -- 0 0
99 Our House 07/11/2014 -- 0 0
100 Picture Books 07/11/2014 -- 0 0
101 Lines For A Flag Raising Ceremony 07/11/2014 -- 0 0
102 Lord, Make Me A Regular Man 07/11/2014 -- 0 0
103 Boy O' Mine 07/11/2014 -- 0 0
104 Folks 07/11/2014 -- 0 0
105 Baby Feet 07/11/2014 -- 0 0
106 When A Little Baby Dies 07/11/2014 -- 0 0
107 Courage, Courage, Courage! 07/11/2014 -- 0 0
108 Being Brave At Night 07/11/2014 -- 0 0
109 A Friend [2] 07/11/2014 -- 0 0
110 The Fifty-Per-Cent Man 07/11/2014 -- 0 0
111 The Best Land 07/11/2014 -- 0 0
112 Making The House A Home 07/11/2014 -- 0 0
113 I Mustn't Forget 07/11/2014 -- 0 0
114 Faith 07/11/2014 -- 0 0
115 The Need 07/11/2014 -- 0 0
116 The Brethren 07/11/2014 -- 0 0
117 Just Like A Man 07/11/2014 -- 0 0
118 Father 07/11/2014 -- 0 0
119 The Joys We Miss 07/11/2014 -- 0 0
120 The Homely Man 07/11/2014 -- 0 0
121 The Inn-Keeper Makes Excuses 07/11/2014 -- 0 0
122 All That Matters 07/11/2014 -- 0 0
123 The Tears Expressive 07/11/2014 -- 0 0
124 The Family Doctor 07/11/2014 -- 0 0
125 Playing The Game 07/11/2014 -- 0 0
126 Bread And Gravy 07/12/2014 -- 0 0
127 Motherhood 07/12/2014 -- 0 0
128 Just Half Of That, Please 07/12/2014 -- 0 0
129 Forgetful Pa 07/12/2014 -- 0 0
130 Living 07/12/2014 -- 0 0
131 When The Young Are Grown 07/12/2014 -- 0 0
132 Mother And The Baby 07/12/2014 -- 0 0
133 Success 07/12/2014 -- 0 0
134 Ten Fingered Mice 07/12/2014 -- 0 0
135 Youth 07/12/2014 -- 0 0
136 Clinching The Bolt 07/12/2014 -- 0 0
137 The Lonely Old Fellow 07/12/2014 -- 0 0
138 Playing For Keeps 07/12/2014 -- 0 0
139 A Warm House And A Ruddy Fire 07/12/2014 -- 0 0
140 The Boy's Ideal 07/12/2014 -- 0 0
141 Unchangeable Mother 07/12/2014 -- 0 0
142 The Harder Part 07/12/2014 -- 0 0
143 Accomplished Care 07/12/2014 -- 0 0
144 The Newspaper Man 07/12/2014 -- 0 0
145 The Common Touch 07/12/2014 -- 0 0
146 Little Feet 07/12/2014 -- 0 0
147 To A Young Man 07/12/2014 -- 0 0
148 Denial 07/12/2014 -- 0 0
149 The Call 07/12/2014 -- 0 0
150 Service 07/12/2014 -- 0 0
151 Example 07/12/2014 -- 0 0
152 The Kindly Neighbor 07/12/2014 -- 0 0
153 Somebody Else 07/12/2014 -- 0 0
154 The Grate Fire 07/12/2014 -- 0 0
155 The Workman's Dream 07/12/2014 -- 0 0
156 The One In Ten 07/12/2014 -- 0 0
157 Winding The Clock 07/12/2014 -- 0 0
158 Until She Died 07/12/2014 -- 0 0
159 Effort 07/12/2014 -- 0 0
160 The Things They Musn't Touch 07/12/2014 -- 0 0
161 Bulb Planting Time 07/12/2014 -- 0 0
162 His Other Chance 07/12/2014 -- 0 0
163 Marjorie 07/12/2014 -- 0 0
164 Fatherhood 07/12/2014 -- 0 0
165 Life 07/12/2014 -- 0 0
166 The Things They Mustn't Touch 07/12/2014 -- 0 0
167 Myself 07/12/2014 -- 0 0
168 Out Fishin' 07/12/2014 -- 0 0
169 July The Fourth 07/12/2014 -- 0 0
170 The Silver Stripes 07/12/2014 -- 0 0
171 Hate 07/12/2014 -- 0 0
172 A Plea 07/12/2014 -- 0 0
173 The Big Deeds 07/12/2014 -- 0 0
174 The Gold Star 07/12/2014 -- 0 0
175 Prophecy 07/12/2014 -- 0 0
176 When The Drums Shall Cease To Beat 07/12/2014 -- 0 0
177 The Lonely Garden 07/12/2014 -- 0 0
178 Battle Of Belleau Wood 07/12/2014 -- 0 0
179 A Prayer, 1918 07/12/2014 -- 0 0
180 Christmas, 1918 07/12/2014 -- 0 0
181 It Couldn't Be Done 07/12/2014 -- 0 0
182 When Mother Cooked With Wood 07/12/2014 -- 0 0
183 Sacrifice 07/12/2014 -- 0 0
184 Yesterday 07/12/2014 -- 0 0
185 The Important Thing 07/12/2014 -- 0 0
186 The Little Church 07/12/2014 -- 0 0
187 The Little Hurts 07/12/2014 -- 0 0
188 As It Goes 07/12/2014 -- 0 0
189 The Old, Old Story 07/12/2014 -- 0 0
190 Just Folks 07/12/2014 -- 0 0
191 Reward 07/12/2014 -- 0 0
192 The Scoffer 07/12/2014 -- 0 0
193 Daddies 07/12/2014 -- 0 0
194 Vacation Time 07/12/2014 -- 0 0
195 The Weaver 07/12/2014 -- 0 0
196 Show The Flag 07/12/2014 -- 0 0
197 Another Mouth To Feed 07/12/2014 -- 0 0
198 Friends 07/12/2014 -- 0 0
199 Toys 07/12/2014 -- 0 0
200 The Truth About Envy 07/12/2014 -- 0 0
201 The Job 07/12/2014 -- 0 0
202 The Lure That Failed 07/12/2014 -- 0 0
203 Curly Locks 07/12/2014 -- 0 0
204 Home And The Baby 07/12/2014 -- 0 0
205 The Old-Time Family 07/12/2014 -- 0 0
206 Loafing 07/12/2014 -- 0 0
207 The Roads Of Happiness 07/12/2014 -- 0 0
208 Hollyhocks 07/12/2014 -- 0 0
209 Songs Of Rejoicing 07/12/2014 -- 0 0
210 Improvement 07/12/2014 -- 0 0
211 The Few 07/12/2014 -- 0 0
212 Manhood's Greeting 07/12/2014 -- 0 0
213 The Day Of Days 07/12/2014 -- 0 0
214 Fishing Nooks 07/12/2014 -- 0 0
215 At Pelletier's 07/12/2014 -- 0 0
216 The March Of Mortality 07/12/2014 -- 0 0
217 The World Is Against Me 07/12/2014 -- 0 0
218 The Man To Be 07/12/2014 -- 0 0
219 When Nellie's On The Job 07/12/2014 -- 0 0
220 A Father's Thoughts 07/12/2014 -- 0 0
221 The Home Builders 07/12/2014 -- 0 0
222 Send Her A Valentine 07/12/2014 -- 0 0
223 Growing Down 07/12/2014 -- 0 0
224 The Price Of Riches 07/12/2014 -- 0 0
225 My Books And I 07/12/2014 -- 0 0
226 The Auto 07/12/2014 -- 0 0
227 When Mother Sleeps 07/12/2014 -- 0 0
228 Questions 07/12/2014 -- 0 0
229 The Front Seat 07/12/2014 -- 0 0
230 The New Days 07/12/2014 -- 0 0
231 October 07/12/2014 -- 0 0
232 The Fisherman 07/12/2014 -- 0 0
233 There Are No Gods! 07/12/2014 -- 0 0
234 The Love Of The Game 07/12/2014 -- 0 0
235 The Handy Man 07/12/2014 -- 0 0
236 June 07/12/2014 -- 0 0
237 Sue's Got A Baby 07/12/2014 -- 0 0
238 Real Swimming 07/12/2014 -- 0 0
239 The Open Fire 07/12/2014 -- 0 0
240 The Other Fellow 07/12/2014 -- 0 0
241 Bud 07/12/2014 -- 0 0
242 We've Had A Letter From The Boy 07/12/2014 -- 0 0
243 Warriors 07/12/2014 -- 0 0
244 The Mother Faith 07/12/2014 -- 0 0
245 Rebellion 07/12/2014 -- 0 0
246 About Boys 07/12/2014 -- 0 0
247 Roses And Sunshine 07/12/2014 -- 0 0
248 Baby's Got A Tooth 07/12/2014 -- 0 0
249 See It Through 07/12/2014 -- 0 0
250 My Creed 07/12/2014 -- 0 0
251 As Fall The Leaves 07/12/2014 -- 0 0
252 Tomorrow 07/12/2014 -- 0 0
253 Can't 07/12/2014 -- 0 0
254 It's September 07/12/2014 -- 0 0
255 Success And Failure 07/12/2014 -- 0 0
256 A Wish 07/12/2014 -- 0 0
257 The Perfect Dinner Table 07/12/2014 -- 0 0
258 What A Baby Costs 07/12/2014 -- 0 0
259 How Do You Tackle Your Work 07/12/2014 -- 0 0
260 Life's Tests 07/12/2014 -- 0 0
261 Ma And The Auto 07/12/2014 -- 0 0
262 Courage 07/12/2014 -- 0 0
263 True Nobility 07/12/2014 -- 0 0
264 Our Duty To Our Flag 07/12/2014 -- 0 0
265 A Patriotic Wish 07/12/2014 -- 0 0
266 The Path That Leads To Home 07/12/2014 -- 0 0
267 Old Friends 07/12/2014 -- 0 0
268 Canning Time 07/12/2014 -- 0 0
269 On Going Home For Christmas 07/12/2014 -- 0 0
270 At The Door 07/12/2014 -- 0 0
271 The Boy That Was 07/12/2014 -- 0 0
272 Rich 07/12/2014 -- 0 0
273 The Sorrow Tugs 07/12/2014 -- 0 0
274 Greatness 07/12/2014 -- 0 0
275 Laddies 07/12/2014 -- 0 0
276 Mother's Glasses 07/12/2014 -- 0 0
277 The Hunter 07/12/2014 -- 0 0
278 Hard Knocks 07/12/2014 -- 0 0
279 Selfish 07/12/2014 -- 0 0
280 Revenge 07/14/2014 -- 0 0
281 Father And Son 07/14/2014 -- 0 0
282 Eternal Friendship 07/14/2014 -- 0 0
283 Purpose 07/14/2014 -- 0 0
284 Duty 07/14/2014 -- 0 0
285 Hard Work 07/14/2014 -- 0 0
286 Division 07/14/2014 -- 0 0
287 Understanding 07/14/2014 -- 0 0
288 The Joy Of A Dog 07/14/2014 -- 0 0
289 Expectation 07/14/2014 -- 0 0
290 The Price Of Joy 07/14/2014 -- 0 0
291 Roses 07/14/2014 -- 0 0
292 Real Singing 07/14/2014 -- 0 0
293 No Place To Go 07/14/2014 -- 0 0
294 Stuck 07/14/2014 -- 0 0
295 The Happy Slow Thinker 07/14/2014 -- 0 0
296 When Pa Comes Home 07/14/2014 -- 0 0
297 The Ready Artists 07/14/2014 -- 0 0
298 When Pa Counts 07/14/2014 -- 0 0
299 The Neighborly Man 07/14/2014 -- 0 0
300 The Happiest Days 07/14/2014 -- 0 0
301 The Bumps And Bruises Doctor 07/14/2014 -- 0 0
302 Mother's Day 07/14/2014 -- 0 0
303 The Sulkers 07/14/2014 -- 0 0
304 The June Couple 07/14/2014 -- 0 0
305 The Fishing Cure 07/14/2014 -- 0 0
306 The Junk Box 07/14/2014 -- 0 0
307 Promotion 07/14/2014 -- 0 0
308 House-Hunting 07/15/2014 -- 0 0
309 Autumn At The Orchard 07/15/2014 -- 0 0
310 To The Lady In The Electric 07/15/2014 -- 0 0
311 Homesick 07/15/2014 -- 0 0
312 The Real Bait 07/15/2014 -- 0 0
313 Under The Skin Of Men 07/15/2014 -- 0 0
314 The States 07/15/2014 -- 0 0
315 Ma And Her Checkbook 07/15/2014 -- 0 0
316 Guessing Time 07/15/2014 -- 0 0
317 The Princess Pat's 07/15/2014 -- 0 0
318 A Toast To Happiness 07/15/2014 -- 0 0
319 Out Of Doors 07/15/2014 -- 0 0
320 The Broken Drum 07/15/2014 -- 0 0
321 The First Steps 07/15/2014 -- 0 0
322 Pa Did It! 07/15/2014 -- 0 0
323 A Patriotic Creed 07/15/2014 -- 0 0
324 Grandpa 07/15/2014 -- 0 0
325 The Sorry Hostess 07/15/2014 -- 0 0
326 The Little Old Man 07/15/2014 -- 0 0
327 The Real Successes 07/15/2014 -- 0 0
328 As It Is 07/15/2014 -- 0 0
329 The Mother's Question 07/15/2014 -- 0 0
330 The Beauty Places 07/15/2014 -- 0 0
331 My Land 07/15/2014 -- 0 0
332 Up To The Ceiling 07/15/2014 -- 0 0
333 On Being Broke 07/15/2014 -- 0 0
334 At Christmas 07/15/2014 -- 0 0
335 The Family's Homely Man 07/15/2014 -- 0 0
336 The Little Velvet Suit 07/15/2014 -- 0 0
337 The Little Army 07/15/2014 -- 0 0
338 The Boy Soldier 07/15/2014 -- 0 0
339 The Blue Flannel Shirt 07/15/2014 -- 0 0
340 The Mother On The Sidewalk 07/15/2014 -- 0 0
341 Bribed 07/15/2014 -- 0 0
342 The Flag On The Farm 07/15/2014 -- 0 0
343 If Only I Were Santa Claus 07/15/2014 -- 0 0
344 Lemon Pie 07/15/2014 -- 0 0
345 The Pathway Of The Living 07/15/2014 -- 0 0
346 A Toast To The Men 07/15/2014 -- 0 0
347 The Chaplain 07/15/2014 -- 0 0
348 The Kick Under The Table 07/15/2014 -- 0 0
349 Father 07/15/2014 -- 0 0
350 A Father's Prayer 07/15/2014 -- 0 0
351 Things Work Out 07/15/2014 -- 0 0
352 Leader Of The Gang 07/15/2014 -- 0 0
353 The Little Orphan 07/15/2014 -- 0 0
354 The Boy And The Flag 07/15/2014 -- 0 0
355 If You Would Please Me 07/15/2014 -- 0 0
356 Life's Slacker 07/15/2014 -- 0 0
357 The Bachelor's Soliloquy 07/15/2014 -- 0 0
358 Selfishness 07/15/2014 -- 0 0
359 Reflection 08/04/2014 -- 0 0
360 Story-Time 08/04/2014 -- 0 0
361 Reflection 08/04/2014 -- 0 0
362 The Old-Fashioned Parents 08/04/2014 -- 0 0
363 At The Millennium 08/04/2014 -- 0 0
364 The Proof Of Worth 08/14/2014 -- 0 0
365 We Need A Few More Optimists 08/14/2014 -- 0 0
366 The Alarm 08/14/2014 -- 0 0
367 A Christmas Greeting 08/14/2014 -- 0 0
368 Ideals 08/14/2014 -- 0 0
369 Compensation 08/14/2014 -- 0 0
370 My Part 08/14/2014 -- 0 0
371 The Complacent Slacker 08/14/2014 -- 0 0
372 The Temple - What Makes It Of Worth 08/14/2014 -- 0 0
373 Easy Service 08/14/2014 -- 0 0
374 Drafted 08/14/2014 -- 0 0
375 Show Me! 08/14/2014 -- 0 0
376 The Girl He Left Behind 08/14/2014 -- 0 0
377 The Wrist Watch Man 08/14/2014 -- 0 0
378 He Who Serves 08/14/2014 -- 0 0
379 Grace At Evening 08/14/2014 -- 0 0
380 For Your Boy And Mine 08/14/2014 -- 0 0
381 I See You've Travelled Some 08/14/2014 -- 0 0
382 The New Year 08/14/2014 -- 0 0
383 The Friendly Greeting 08/14/2014 -- 0 0
384 Taking His Place 08/14/2014 -- 0 0
385 Follow A Famous Father 08/14/2014 -- 0 0
386 Your Country Needs You 08/14/2014 -- 0 0
387 A Patriot 08/14/2014 -- 0 0
388 Envy 08/14/2014 -- 0 0
389 People Like Him 07/14/2014 -- 0 0
390 Defeat 07/14/2014 -- 0 0
391 I 07/14/2014 -- 0 0
392 Challenge 07/14/2014 -- 0 0
393 Gratitude 07/14/2014 -- 0 0
394 A Prayer 07/14/2014 -- 0 0
395 An Easy World 07/14/2014 -- 0 0
396 A Vow 07/14/2014 -- 0 0
397 Things That Haven't Been Done Before 07/14/2014 -- 0 0
398 The Finer Thought 07/14/2014 -- 0 0
399 The Pup 07/12/2014 -- 0 0
400 Thec Lanes Of Memory 07/12/2014 -- 0 0
401 Memorial Day 07/12/2014 -- 0 0
402 Heroes 07/12/2014 -- 0 0
403 God Made This Day For Me 07/11/2014 -- 0 0
404 Sausage 07/11/2014 -- 0 0
405 Old-Fashioned Letters 07/11/2014 -- 0 0
406 The Frosting Dish 07/11/2014 -- 0 0
407 The Unsettled Scores 08/14/2014 -- 0 0
408 Move We Adjourn 08/14/2014 -- 0 0
409 The Waiter At The Camp 08/14/2014 -- 0 0
410 His Room 08/14/2014 -- 0 0
411 America 08/14/2014 -- 0 0
412 Why We Fight 08/14/2014 -- 0 0
413 Soldierly 08/14/2014 -- 0 0
414 The Lamb Skin 08/14/2014 -- 0 0
415 The Better Job 08/14/2014 -- 0 0
416 The Change 08/14/2014 -- 0 0
417 Good Luck 08/14/2014 -- 0 0
418 The Joy To Be 08/14/2014 -- 0 0
419 Mothers And Wives 08/14/2014 -- 0 0
420 The Time For Deeds 08/14/2014 -- 0 0
421 I'd Rather Be A Failure 08/14/2014 -- 0 0
422 The Call To Service 08/14/2014 -- 0 0
423 Kelly Ingram 08/14/2014 -- 0 0
424 The Things That Make A Soldier Great 08/14/2014 -- 0 0
425 So Easy 08/14/2014 -- 0 0
426 Everywhere In America 08/14/2014 -- 0 0
427 Over Here 08/14/2014 -- 0 0
428 A Father's Wish 08/14/2014 -- 0 0
429 The Chip On Your Shoulder 08/14/2014 -- 0 0
430 Hard Luck 07/12/2014 -- 0 0
431 On Quitting 07/12/2014 -- 0 0
432 Childless 07/12/2014 -- 0 0
433 The Crucible Of Life 07/12/2014 -- 0 0
434 Laughter 07/12/2014 -- 0 0
435 Signs 07/12/2014 -- 0 0
436 Constant Beauty 07/12/2014 -- 0 0
437 Departed Friends 07/12/2014 -- 0 0
438 A Fine Sight 07/12/2014 -- 0 0
439 Grown Up 07/12/2014 -- 0 0
440 Mothers' Excuses 07/12/2014 -- 0 0
441 Unimportant Differences 07/12/2014 -- 0 0
442 The Fishing Outfit 07/12/2014 -- 0 0
443 When Father Played Baseball 07/12/2014 -- 0 0
444 Since Jessie Died 07/12/2014 -- 0 0
445 To The Humble 07/12/2014 -- 0 0
446 The Summer Children 07/12/2014 -- 0 0
447 Treasures 07/12/2014 -- 0 0
448 Spring In The Trenches 07/12/2014 -- 0 0
449 Failures 07/12/2014 -- 0 0
450 Little Master Mischievous 07/12/2014 -- 0 0
451 Story Telling 07/12/2014 -- 0 0
452 When You Know A Fellow 07/12/2014 -- 0 0
453 My Paw Said So 07/12/2014 -- 0 0
454 The Dull Road 07/12/2014 -- 0 0
455 The Gentle Gardener 07/12/2014 -- 0 0
456 The Man Who Couldn't Save 07/12/2014 -- 0 0
457 At Sugar Camp 07/12/2014 -- 0 0
458 Preparedness 07/12/2014 -- 0 0
459 Care-Free Youth 07/12/2014 -- 0 0
460 The Home-town 07/12/2014 -- 0 0
461 Raisin Pie 07/12/2014 -- 0 0
462 The Finest Age 07/12/2014 -- 0 0
463 The Peaceful Warriors 07/14/2014 -- 0 0
464 It Isn't Costly 07/14/2014 -- 0 0
465 The Epicure 07/14/2014 -- 0 0
466 The Rough Little Rascal 07/14/2014 -- 0 0
467 Exempt 07/14/2014 -- 0 0
468 The Boy Enlists 07/14/2014 -- 0 0
469 At The Peace Table 08/14/2014 -- 0 0
470 Fine 08/14/2014 -- 0 0
471 The Happy Man 08/15/2014 -- 0 0
472 Practicing Time 08/15/2014 -- 0 0
473 Trouble Brings Friends 08/15/2014 -- 0 0
474 Carry On 08/15/2014 -- 0 0
475 He Should Meet A Mother There 08/15/2014 -- 0 0
476 Fly A Clean Flag 08/15/2014 -- 0 0
477 April Thoughts 08/15/2014 -- 0 0
478 Friendship 08/15/2014 -- 0 0
479 Contentment 08/15/2014 -- 0 0
480 Toys And Life 08/15/2014 -- 0 0
481 When Friends Drop In 08/15/2014 -- 0 0
482 July The Fourth, 1917 08/15/2014 -- 0 0
483 Follow The Flag 08/15/2014 -- 0 0
484 Do Your All 08/15/2014 -- 0 0
485 We Who Stay At Home 08/15/2014 -- 0 0
486 If You And I 08/15/2014 -- 0 0
487 A Song 08/15/2014 -- 0 0
488 When It's Bad To Forget 08/15/2014 -- 0 0
489 Why I'm Glad 08/15/2014 -- 0 0
490 Patriotism 08/15/2014 -- 0 0
491 Lost Opportunities 08/15/2014 -- 0 0
492 The Approach Of Christmas 08/15/2014 -- 0 0
493 Selling The Old Home 08/15/2014 -- 0 0
494 With Dog And Gun 08/15/2014 -- 0 0
495 Little Wrangles 08/15/2014 -- 0 0
496 The Responsibility Of Fatherhood 08/15/2014 -- 0 0
497 The Little Old-Fashioned Church 08/15/2014 -- 0 0
498 When We Were Kids 08/15/2014 -- 0 0
499 Dreaming 08/15/2014 -- 0 0
500 At The Cottage 08/15/2014 -- 0 0
501 The Sweetest Soul I Ever Knew 08/15/2014 -- 0 0
502 Some Day 08/15/2014 -- 0 0
503 Consolation 08/15/2014 -- 0 0
504 Don't You Know 08/15/2014 -- 0 0
505 Alone 08/15/2014 -- 0 0
506 Aunty 08/15/2014 -- 0 0
507 My Soul And I 08/15/2014 -- 0 0
508 Under The Roof Where The Laughter Rings 08/15/2014 -- 0 0
509 Ambition 08/15/2014 -- 0 0
510 Contradictin' Joe 08/15/2014 -- 0 0
511 Aw Gee Whiz! 08/15/2014 -- 0 0
512 A Good Soldier 08/15/2014 -- 0 0
513 Beautifying The Flag 08/15/2014 -- 0 0
514 The Birth Of Love 08/15/2014 -- 0 0
515 At the Wedding 08/15/2014 -- 0 0
516 Real Lessons 08/20/2014 -- 0 0
517 Memories Of Tomorrow 08/20/2014 -- 0 0
518 Lonely 08/20/2014 -- 0 0
519 The Man Who's Down 08/20/2014 -- 0 0
520 The Green Of Michigan 08/20/2014 -- 0 0
521 They Don't 08/20/2014 -- 0 0
522 Easter 08/20/2014 -- 0 0
523 To The Failures 08/20/2014 -- 0 0
524 The Lilacs 08/20/2014 -- 0 0
525 A Query — 08/20/2014 -- 0 0
526 Christmas Eve 08/20/2014 -- 0 0
527 The Song Of Loved Ones 08/20/2014 -- 0 0
528 The Burden Bearer 08/20/2014 -- 0 0
529 Spoiling Them 08/20/2014 -- 0 0
530 Loser And Victor 08/20/2014 -- 0 0
531 Ma And The Ouija Board 08/20/2014 -- 0 0
532 To The Men At Home 08/20/2014 -- 0 0
533 Here We Are! 08/20/2014 -- 0 0
534 A Lullaby 08/20/2014 -- 0 0
535 A Pat On The Back 08/20/2014 -- 0 0
536 Neglected 08/20/2014 -- 0 0
537 Mothers' Splendid Dreams 08/20/2014 -- 0 0
538 A Suggestion 08/20/2014 -- 0 0
539 When There's Health In The House 08/20/2014 -- 0 0
540 Keep To The Right 08/20/2014 -- 0 0
541 An Ode To Nellie 08/20/2014 -- 0 0
542 Think Happy Thoughts 08/20/2014 -- 0 0
543 A Successful Dad 08/20/2014 -- 0 0
544 A Year's New Wish 08/20/2014 -- 0 0
545 Endurance 08/20/2014 -- 0 0
546 Bravery 08/20/2014 -- 0 0
547 His Example 08/20/2014 -- 0 0
548 To The Boy 08/20/2014 -- 0 0
549 What Father Knows 08/20/2014 -- 0 0
550 Mother's Job 08/20/2014 -- 0 0
551 She Powders Her Nose 08/20/2014 -- 0 0
552 Old Years And New 08/20/2014 -- 0 0
553 Safe At Home 08/20/2014 -- 0 0
554 The Honor Roll 08/20/2014 -- 0 0
555 Next Of Kin 08/20/2014 -- 0 0
556 The Christmas Box 08/20/2014 -- 0 0
557 The Boy's Adventure 08/20/2014 -- 0 0
558 Bigger Than His Dad 08/20/2014 -- 0 0
559 The Sympathetic Minister 08/20/2014 -- 0 0
560 The Shattered Dream 08/20/2014 -- 0 0
561 Trustful Ma 08/20/2014 -- 0 0
562 The Fight Worth While 08/20/2014 -- 0 0
563 The Songs Of Night 08/20/2014 -- 0 0
564 Unphilosophic 08/20/2014 -- 0 0
565 Mark Twain 08/20/2014 -- 0 0
566 Back To School 08/20/2014 -- 0 0
567 Independence Day 08/20/2014 -- 0 0
568 The Man I'm For 08/20/2014 -- 0 0
569 When Mother Made An Angel Cake 08/20/2014 -- 0 0
570 The Furnace Door 08/20/2014 -- 0 0
571 No Use Sighin' 08/20/2014 -- 0 0
572 When We Play The Fool 08/20/2014 -- 0 0
573 Just A Boy 08/20/2014 -- 0 0
574 Cleaning The Furnace 08/20/2014 -- 0 0
575 Pa And The Monthly Bills 08/20/2014 -- 0 0
576 His Santa Claus 08/20/2014 -- 0 0
577 War's Homecoming 08/20/2014 -- 0 0
578 For The Living 08/20/2014 -- 0 0
579 I'll Never Be Rich 08/20/2014 -- 0 0
580 The Monument Of Kindness 08/20/2014 -- 0 0
581 The Road Builder 08/20/2014 -- 0 0
582 The Man I Like 08/20/2014 -- 0 0
583 The Man Of His Word 08/20/2014 -- 0 0
584 Can't Frighten Them 08/20/2014 -- 0 0
585 Life And Hereafter 08/20/2014 -- 0 0
586 A Place At The Top 08/20/2014 -- 0 0
587 Business 08/20/2014 -- 0 0
588 Under A Tree 08/20/2014 -- 0 0
589 Man's Experience 08/20/2014 -- 0 0
590 A Lesson From Golf 08/20/2014 -- 0 0
591 Pleasing Dad 08/20/2014 -- 0 0
592 When An Old Man Gets To Thinking 08/20/2014 -- 0 0
593 The Test 08/20/2014 -- 0 0
594 When My Ship Comes In 08/20/2014 -- 0 0
595 Along The Paths O' Glory 08/20/2014 -- 0 0
596 The Doctor 08/20/2014 -- 0 0
597 What Makes An Artist 08/20/2014 -- 0 0
598 The World And Bud 08/20/2014 -- 0 0
599 Pretending Not To See 08/20/2014 -- 0 0
600 The Age Of Ink 08/20/2014 -- 0 0
601 United 08/20/2014 -- 0 0
602 The Better Thing 08/20/2014 -- 0 0
603 A Greeting 08/20/2014 -- 0 0
604 Living Monuments 08/20/2014 -- 0 0
605 Off To School 08/20/2014 -- 0 0
606 The Path O' Little Children 08/20/2014 -- 0 0
607 The Graduation Dress 08/20/2014 -- 0 0
608 Mother Nature 08/20/2014 -- 0 0
609 They're Coming Back 08/20/2014 -- 0 0
610 Two Viewpoints 08/20/2014 -- 0 0
611 Jimmy 08/20/2014 -- 0 0
612 Getting Her A Valentine 08/20/2014 -- 0 0
613 The Homes Of Joy 08/20/2014 -- 0 0
614 The Average Man 08/20/2014 -- 0 0
615 The Kindergarten Miss 08/20/2014 -- 0 0
616 Similar 08/20/2014 -- 0 0
617 True 08/20/2014 -- 0 0
618 Lullaby 08/20/2014 -- 0 0
619 The Cut-Down Trousers 08/20/2014 -- 0 0
620 Bread And Jam 08/20/2014 -- 0 0
621 The Bride 08/20/2014 -- 0 0
622 The Simple Things 08/20/2014 -- 0 0
623 Golf Luck 08/20/2014 -- 0 0
624 Committee Meetings 08/20/2014 -- 0 0
625 Nothing To Laugh At 08/20/2014 -- 0 0
626 Brothers All 08/20/2014 -- 0 0
627 Bob White 08/20/2014 -- 0 0
628 To A Lady Knitting 08/20/2014 -- 0 0
629 Thoughts Of A Soldier 08/20/2014 -- 0 0
630 General Pershing 08/20/2014 -- 0 0
631 As It Looks To The Boy 08/20/2014 -- 0 0
632 The Home-Wrecker 08/20/2014 -- 0 0
633 The Baby's Feet 08/20/2014 -- 0 0
634 A Real Thriller 08/20/2014 -- 0 0
635 History Teaches 08/20/2014 -- 0 0
636 Answering Age 08/20/2014 -- 0 0
637 Old-Fashioned Folks 08/20/2014 -- 0 0
638 A Friend's Greeting 08/20/2014 -- 0 0
639 Not A Money Debt 08/20/2014 -- 0 0
640 The Women Of The Sailors 08/20/2014 -- 0 0
641 The First Rule Of Golf 08/20/2014 -- 0 0
642 One-Sided Faith 08/20/2014 -- 0 0
643 Human Failings 08/25/2014 -- 0 0
644 He Earned His Way 08/25/2014 -- 0 0
645 The Naughty Little Fellow 08/25/2014 -- 0 0
646 The Sensible Romance Of Mildred 08/25/2014 -- 0 0
647 Worth While 08/25/2014 -- 0 0
648 A New Year's Song 08/25/2014 -- 0 0
649 A Preference 08/25/2014 -- 0 0
650 Temptation 08/25/2014 -- 0 0
651 The Right To Joy 08/25/2014 -- 0 0
652 Little Miss Laugh-A-Lot 08/25/2014 -- 0 0
653 Mary 08/25/2014 -- 0 0
654 Sticky Fingers 08/25/2014 -- 0 0
655 The Notion Of Rastus 08/25/2014 -- 0 0
656 Charms 08/25/2014 -- 0 0
657 The Joys Of Earth 08/25/2014 -- 0 0
658 True Philosophy 08/25/2014 -- 0 0
659 The Fight With Self 08/25/2014 -- 0 0
660 The Influence Of Woman 08/25/2014 -- 0 0
661 Magazine Girl 08/25/2014 -- 0 0
662 The Way To Make Friends 08/25/2014 -- 0 0
663 Buckle In 08/25/2014 -- 0 0
664 His First Long Trousers 08/25/2014 -- 0 0
665 The Don't Believers 08/25/2014 -- 0 0
666 The Limitations Of Greatness 08/25/2014 -- 0 0
667 Reunited 08/25/2014 -- 0 0
668 For Others—And His Wife 08/25/2014 -- 0 0
669 The Glories Of The Present 08/25/2014 -- 0 0
670 The Spendthrift 08/25/2014 -- 0 0
671 Gardening 08/25/2014 -- 0 0
672 Tommy Atkins' Way 08/25/2014 -- 0 0
673 The Doubtful To-Morrow 08/25/2014 -- 0 0
674 Tonsils 08/25/2014 -- 0 0
675 The Old Wooden Tub 08/25/2014 -- 0 0
676 Tied Down 08/25/2014 -- 0 0
677 First Name Friends 08/25/2014 -- 0 0
678 Mrs. Malone And The Censor 08/25/2014 -- 0 0
679 Dr. Johnson's Picture Cow 08/25/2014 -- 0 0
680 She Mothered Five 08/25/2014 -- 0 0
681 The Cure For Weariness 08/25/2014 -- 0 0
682 A Vanished Joy 08/25/2014 -- 0 0
683 The Gold Givers 08/25/2014 -- 0 0
684 The Little Chap 08/25/2014 -- 0 0
685 The Thumbed Collar 08/25/2014 -- 0 0
686 Arcady 08/25/2014 -- 0 0
687 Play the Man 08/25/2014 -- 0 0
688 Wisdom's Haunts 08/25/2014 -- 0 0
689 A Good World 08/25/2014 -- 0 0
690 The Vote Of Thanks 08/25/2014 -- 0 0
691 Christmas Greeting 08/25/2014 -- 0 0
692 Mother Of Five 08/25/2014 -- 0 0
693 Slumberland Time 08/25/2014 -- 0 0
694 Trouble 08/25/2014 -- 0 0
695 What A Sick Woman Does 08/25/2014 -- 0 0
696 The Family Party 08/26/2014 -- 0 0
697 The Lanes Of Boyhood 08/26/2014 -- 0 0
698 His Philosophy 08/26/2014 -- 0 0
699 The Fellowship Of Books 08/14/2014 -- 0 0
700 The Flag 08/14/2014 -- 0 0
701 A Woman's Love 08/14/2014 -- 0 0
702 A Father's Tribute 08/14/2014 -- 0 0
703 It's a Boy 08/14/2014 -- 0 0
704 A Discussion 08/14/2014 -- 0 0
705 Kindness 08/14/2014 -- 0 0
706 The Making Of Friends 08/14/2014 -- 0 0
707 The Call Of The Woods 08/14/2014 -- 0 0
708 The Joys Of Home 08/14/2014 -- 0 0
709 Autumn 08/14/2014 -- 0 0
710 Sittin' On The Porch 08/14/2014 -- 0 0
711 Give Me A Single Day 08/14/2014 -- 0 0
712 The Benefit Of Trouble 08/14/2014 -- 0 0
713 The Reason For Work 08/14/2014 -- 0 0
714 Faces 08/14/2014 -- 0 0
715 The Things You Can't Forget 08/14/2014 -- 0 0
716 The Deeds Of Anger 08/14/2014 -- 0 0
717 From Laughter To Labor 08/14/2014 -- 0 0
718 To A Kindly Critic 08/14/2014 -- 0 0
719 The Plugger 08/14/2014 -- 0 0
720 Gossip 08/14/2014 -- 0 0
721 Don't Worry, Little Girl 08/14/2014 -- 0 0
722 Rather Stay Home 08/14/2014 -- 0 0
723 The Contented Man 08/14/2014 -- 0 0
724 Up And Down The Lanes Of Love 08/14/2014 -- 0 0
725 Names And Faces 08/14/2014 -- 0 0
726 The Fun Of Forgiving 08/14/2014 -- 0 0
727 There Will Always Be Something To Do 08/14/2014 -- 0 0
728 The Cookie-Lady 08/14/2014 -- 0 0
729 A Coming Reunion 08/14/2014 -- 0 0
730 When Mother's Sewing Buttons On 08/14/2014 -- 0 0
731 All For The Best 08/14/2014 -- 0 0
732 Joys Within Reach 08/14/2014 -- 0 0
733 Life Is What We Make It 08/14/2014 -- 0 0
734 Hope 08/14/2014 -- 0 0
735 A Woman's Ways 08/14/2014 -- 0 0
736 A Convalescin' Woman 08/14/2014 -- 0 0
737 The Book Of Memory 08/14/2014 -- 0 0
738 Afraid Of His Dad 08/14/2014 -- 0 0
739 Sympathy 08/14/2014 -- 0 0
740 Little Girls 08/14/2014 -- 0 0
741 When We're All Alike 08/14/2014 -- 0 0
742 To A Little Girl 08/14/2014 -- 0 0
743 The Discovery Of A Soul 08/14/2014 -- 0 0
744 Love 08/14/2014 -- 0 0
745 Couldn't Live Without You 08/14/2014 -- 0 0
746 A Wonderful World 08/14/2014 -- 0 0
747 A Feller's Hat 08/14/2014 -- 0 0
748 The Toy-Strewn Home 08/14/2014 -- 0 0
749 To An Old Friend 08/14/2014 -- 0 0
750 I Ain't Dead Yet 08/14/2014 -- 0 0
751 Life's Single Standard 08/14/2014 -- 0 0
752 The True Man 08/14/2014 -- 0 0
753 Our Little Needs 08/14/2014 -- 0 0
754 When We Understand The Plan 08/14/2014 -- 0 0
755 Bedtime 08/14/2014 -- 0 0
756 After All Is Said And Done 08/14/2014 -- 0 0
757 The Loss Is Not So Great 08/14/2014 -- 0 0
758 Too Big A Price 08/14/2014 -- 0 0
759 The Glory Of Age 08/14/2014 -- 0 0
760 Grandma 08/14/2014 -- 0 0
761 Since I Have Done My Best 08/14/2014 -- 0 0
762 What We Can Be 08/14/2014 -- 0 0
763 The Mother Watch 08/14/2014 -- 0 0
764 Looking Back 08/14/2014 -- 0 0
765 Today 08/14/2014 -- 0 0
766 A Good Name 08/14/2014 -- 0 0
767 The Children 08/14/2014 -- 0 0
768 Satisfied With Life 08/14/2014 -- 0 0
769 The Undaunted 08/14/2014 -- 0 0
770 Golf Pride 08/14/2014 -- 0 0
771 If Those Who Love Us 08/14/2014 -- 0 0
772 The Departed 08/14/2014 -- 0 0
773 Joy 08/14/2014 -- 0 0
774 The Three Me's 08/14/2014 -- 0 0
775 The Struggle 08/14/2014 -- 0 0
776 He Has Not Lived In Vain 08/14/2014 -- 0 0
777 A Heart To Heart Talk 08/14/2014 -- 0 0
778 Be Cheerful 08/14/2014 -- 0 0
779 Becoming A Dad 08/14/2014 -- 0 0
780 Best Way To Read A Book 08/14/2014 -- 0 0
781 Little Girls Are Best 08/14/2014 -- 0 0
782 Learn To Smile 08/14/2014 -- 0 0
783 Wait Till Your Pa Comes Home 08/14/2014 -- 0 0
784 Out Of It All 08/14/2014 -- 0 0
785 The Way To Do 08/26/2014 -- 0 0
786 Little Miss Six O'Clock 08/26/2014 -- 0 0
787 A Little The Best Of It 08/26/2014 -- 0 0
788 His Chance 08/26/2014 -- 0 0
789 Roses, Birds And Some Men 08/26/2014 -- 0 0
790 A Valentine 08/26/2014 -- 0 0
791 The Town Of Nothing-To-Do 08/26/2014 -- 0 0
792 The Rewards Of Industry 08/26/2014 -- 0 0
793 Literary Mother 08/26/2014 -- 0 0
794 Somebody Spoke A Cheering Word 08/26/2014 -- 0 0
795 The Old Days 08/26/2014 -- 0 0
796 Roses And Gasoline 08/26/2014 -- 0 0
797 A Fourth Of July Wish 08/26/2014 -- 0 0
798 The Christmas Spirit 08/26/2014 -- 0 0
799 The Change-Worker 08/26/2014 -- 0 0
800 At Dawn 08/26/2014 -- 0 0
801 The Pay Envelope 08/26/2014 -- 0 0
802 Dinner-Time 08/26/2014 -- 0 0
803 My Job 08/26/2014 -- 0 0
804 The Finest Fellowship 08/26/2014 -- 0 0
805 The Gift Of Play 08/26/2014 -- 0 0
806 The Little Woman 08/26/2014 -- 0 0
807 An Old-Fashioned Welcome 08/26/2014 -- 0 0
808 Summer Dreams 08/26/2014 -- 0 0
809 Where's Mamma? 08/26/2014 -- 0 0
810 What Home's Intended For 08/26/2014 -- 0 0
811 The Christmas Gift For Mother 08/26/2014 -- 0 0
812 Boy And His Stomach 08/26/2014 -- 0 0
813 The Simple Toilers 08/26/2014 -- 0 0
814 The Lonely Fight 08/26/2014 -- 0 0
815 Different 08/26/2014 -- 0 0
816 Ma An' Me 08/26/2014 -- 0 0
817 He Struck Me! 08/26/2014 -- 0 0
818 Fame 08/26/2014 -- 0 0
819 Tuckered Out 08/26/2014 -- 0 0
820 His Rattle He Throws On The Floor 08/26/2014 -- 0 0
821 Fixing The Shame 08/26/2014 -- 0 0
822 What Ma Said 08/26/2014 -- 0 0
823 A Scare 08/26/2014 -- 0 0
824 The Ballad Of The New Arrival 08/26/2014 -- 0 0
825 Riches 08/26/2014 -- 0 0
826 The Little Country Bus 08/26/2014 -- 0 0
827 Cornered 08/26/2014 -- 0 0
828 The Painter 08/26/2014 -- 0 0
829 Old Fashioned Remedies 08/26/2014 -- 0 0
830 Doughnuts And Cider 08/26/2014 -- 0 0
831 Sunday In The Country 08/26/2014 -- 0 0
832 The Rich Man's Woes 08/26/2014 -- 0 0
833 Winds Of The Morning 08/26/2014 -- 0 0
834 The Boy Mind 08/26/2014 -- 0 0
835 The Farmer Talks 08/26/2014 -- 0 0
836 The Summer Argument 08/26/2014 -- 0 0
837 My Plan 08/26/2014 -- 0 0
838 Out Of The Day 08/26/2014 -- 0 0
839 Nothing Unusual 08/26/2014 -- 0 0
840 The Homecomer's Song 08/26/2014 -- 0 0
841 Other's Successes 08/27/2014 -- 0 0
842 The Cost Of Praise 08/27/2014 -- 0 0
843 What To Do 08/27/2014 -- 0 0
844 The Way Of The World 08/27/2014 -- 0 0
845 The Summer Girl 08/27/2014 -- 0 0
846 After A Proposal 08/27/2014 -- 0 0
847 Songs Of Gloom 08/27/2014 -- 0 0
848 My Word! 08/27/2014 -- 0 0
849 The March O' Man 08/27/2014 -- 0 0
850 Father's Chore 08/27/2014 -- 0 0
851 Living Flowers 08/27/2014 -- 0 0
852 His Dog 08/27/2014 -- 0 0
853 Thoughts Of A Father 08/27/2014 -- 0 0
854 The Evening Prayer 08/27/2014 -- 0 0
855 The Comedian 08/27/2014 -- 0 0
856 Mother's Party Dress 08/27/2014 -- 0 0
857 The Lost Purse 08/27/2014 -- 0 0
858 Autumn Evenings 08/27/2014 -- 0 0
859 Copy Paper 08/27/2014 -- 0 0
860 The Cure 08/27/2014 -- 0 0
861 Answering The Usual Questions 08/27/2014 -- 0 0
862 Capital Punishment 08/27/2014 -- 0 0
863 The Time For Brotherhood 08/27/2014 -- 0 0
864 Tell Him Why 08/27/2014 -- 0 0
865 Jes' Wonderin'! 08/27/2014 -- 0 0
866 The Value Of A Telephone 08/27/2014 -- 0 0
867 Sacrifices 08/27/2014 -- 0 0
868 The Toiler 08/27/2014 -- 0 0
869 The Child World 08/27/2014 -- 0 0
870 The Limit 08/27/2014 -- 0 0
871 Neil Snow 08/27/2014 -- 0 0
872 The Disgrace Of Poverty 08/27/2014 -- 0 0
873 The Gentle Hand Of Women Folks 08/27/2014 -- 0 0
874 Fishing Reasons 08/27/2014 -- 0 0
875 Man And Lathe 08/27/2014 -- 0 0
876 If I Were Santa Claus 08/27/2014 -- 0 0
877 The Bank Clerk 08/27/2014 -- 0 0
878 The Killing Place 08/27/2014 -- 0 0
879 Found Out 08/27/2014 -- 0 0
880 You And Your Body 08/27/2014 -- 0 0
881 Lillian's Reading 08/27/2014 -- 0 0
882 Chums 08/27/2014 -- 0 0
883 Safe Conduct 08/27/2014 -- 0 0
884 Tinkerin' At Home 08/27/2014 -- 0 0
885 Being Dad On Christmas Eve 08/27/2014 -- 0 0
886 Our Country 08/27/2014 -- 0 0
887 Bud Discusses Cleanliness 08/27/2014 -- 0 0
888 Pleasure's Signs 08/27/2014 -- 0 0
889 St. Valentine's Day 08/27/2014 -- 0 0
890 When The Minister Calls 08/27/2014 -- 0 0
891 The Song Of The Builder 08/27/2014 -- 0 0
892 The Lucky Man 08/27/2014 -- 0 0
893 Old Mister Laughter 08/27/2014 -- 0 0
894 The Wide Outdoors 08/27/2014 -- 0 0
895 The Spoiler 08/27/2014 -- 0 0
896 George Moir Black 08/27/2014 -- 0 0
897 Real Help 08/27/2014 -- 0 0
898 Answering The Grumblers 08/27/2014 -- 0 0
899 Troubles 08/27/2014 -- 0 0
900 Strange 08/27/2014 -- 0 0
901 My Proud Pa 08/27/2014 -- 0 0
902 Welcoming The New Year 08/27/2014 -- 0 0
903 ‘Erbert's H'Opinion 08/27/2014 -- 0 0
904 The Jedge Of Bowie County 08/27/2014 -- 0 0
905 Song Of The Many 08/27/2014 -- 0 0
906 Down The Lanes Of August 08/27/2014 -- 0 0
907 The Whiners 08/27/2014 -- 0 0
908 Let's Go 08/27/2014 -- 0 0
909 Food, Clothes And Drink 08/27/2014 -- 0 0
910 The Tempters 08/27/2014 -- 0 0
911 The Neighbors 08/27/2014 -- 0 0
912 Good Friday 08/27/2014 -- 0 0
913 The Choir At Pixley 08/27/2014 -- 0 0
914 Comradeship 08/27/2014 -- 0 0
915 The Bank Roll 08/27/2014 -- 0 0
916 On Station Farewells 08/27/2014 -- 0 0
917 The Dreams Of Youth 08/27/2014 -- 0 0
918 United States 08/27/2014 -- 0 0
919 Cliffs Of Scotland 08/27/2014 -- 0 0
920 If I Had Youth 08/27/2014 -- 0 0
921 We're Dreamers All 08/27/2014 -- 0 0
922 Pa Discusses Economy 08/27/2014 -- 0 0
923 Little Fellow 08/27/2014 -- 0 0
924 The Brave Men 08/27/2014 -- 0 0
925 Glad 08/27/2014 -- 0 0
926 King 08/27/2014 -- 0 0
927 Lines To The Wash Woman 08/27/2014 -- 0 0
928 Punishment 08/27/2014 -- 0 0
929 Hubbard And Pelletier 08/27/2014 -- 0 0
930 Fishin'-Hunger 08/27/2014 -- 0 0
931 When The Dressmaker Comes 08/27/2014 -- 0 0
932 The Bright Side 08/27/2014 -- 0 0
933 An Uncle 08/27/2014 -- 0 0
934 The Dream days 08/27/2014 -- 0 0
935 September 08/27/2014 -- 0 0
936 The Peevish Man 08/27/2014 -- 0 0
937 When Pa Gets Back 08/27/2014 -- 0 0
938 The Card Club's First Meeting 08/27/2014 -- 0 0
939 The New Year's Caller 08/27/2014 -- 0 0
940 The After-Dinner Smoke 08/27/2014 -- 0 0
941 At The Summer Cottage 08/27/2014 -- 0 0
942 The Old-Fashioned Cooks 08/27/2014 -- 0 0
943 My Big Brother 08/27/2014 -- 0 0
944 The Right Family 08/27/2014 -- 0 0
945 Shut-Ins 08/27/2014 -- 0 0
946 The Tramp 08/27/2014 -- 0 0
947 The Father Of The Man 08/27/2014 -- 0 0
948 Snooping 'Round 08/27/2014 -- 0 0
949 Little Fishermen 08/27/2014 -- 0 0
950 An Apple Tree In France 08/27/2014 -- 0 0
951 Only A Building 08/27/2014 -- 0 0
952 Your Caddie And You 08/27/2014 -- 0 0
953 St. Louis: A Song Of The City 09/02/2014 -- 0 0
954 The Peaks Of Valor 09/02/2014 -- 0 0
955 Where Children Play 09/02/2014 -- 0 0
956 The Willing Horse 09/02/2014 -- 0 0
957 Green Apple Time 09/02/2014 -- 0 0
958 When Ma Wants Something New 09/02/2014 -- 0 0
959 Dan McGann Declares Himself 09/02/2014 -- 0 0
960 Dreading 09/02/2014 -- 0 0
961 Happiness 09/02/2014 -- 0 0
962 Now And Then 09/02/2014 -- 0 0
963 A Personal View Of War 09/02/2014 -- 0 0
964 The Joy Of Getting Back 09/02/2014 -- 0 0
965 Queer Ebenezer 09/02/2014 -- 0 0
966 The Lanes Of Apple Bloom 09/02/2014 -- 0 0
967 Warning The Carpenter 09/02/2014 -- 0 0
968 Little Marie 09/02/2014 -- 0 0
969 Not Crossing Bridges 09/02/2014 -- 0 0
970 Henry Ford's Offhand Way 09/02/2014 -- 0 0
971 The Worry-Chaser 09/02/2014 -- 0 0
972 Out In The Open 09/02/2014 -- 0 0
973 Pixley Folks 09/02/2014 -- 0 0
974 Contrary Sary 09/02/2014 -- 0 0
975 Out At Pelletier's 09/02/2014 -- 0 0
976 The Panama Canal 09/02/2014 -- 0 0
[Hata Bildir]